EW1914 Weather Reports


Display with metric or nautical units.
time (UTC)temp
F
wind
direction
speed
MPH
gust
MPH
rain 1hr
in
rain 24hr
in
rain mn
in
humidity
%
barometer
mb
20260505010959 75 0.0 0.0 0.00 0.00 0.00 60 1009.3
20260505010006 75 0.0 0.0 0.00 0.00 0.00 61 1009.3
20260505004958 75 0.0 0.0 0.00 0.00 0.00 61 1009.4
20260505003959 76 0.0 0.0 0.00 0.00 0.00 59 1009.4
20260505003005 76 0.0 0.0 0.00 0.00 0.00 60 1009.4
20260505001959 76 0.0 0.0 0.00 0.00 0.00 59 1009.5
20260505000959 76 0.0 0.0 0.00 0.00 0.00 60 1009.5
20260504235000 76 0.0 0.0 0.00 0.00 0.00 57 1009.7
20260504233959 76 0.0 0.0 0.00 0.00 0.00 56 1009.7
20260504233001 76 0.0 0.0 0.00 0.00 0.00 57 1009.8
20260504230959 76 0.0 0.0 0.00 0.00 0.00 57 1010.0
20260504230001 76 0.0 0.0 0.00 0.00 0.00 56 1010.1
20260504224958 75 0.0 0.0 0.00 0.00 0.00 57 1010.2
20260504223959 75 0.0 0.0 0.00 0.00 0.00 58 1010.3
20260504223000 75 0.0 0.0 0.00 0.00 0.00 56 1010.5
20260504221959 74 0.0 0.0 0.00 0.00 0.00 59 1010.7
20260504220959 73 0.0 0.0 0.00 0.00 0.00 59 1010.8
20260504220000 73 0.0 0.0 0.00 0.00 0.00 60 1010.9
20260504211958 71 0.0 0.0 0.00 0.00 0.00 62 1011.3
20260504210000 70 0.0 0.0 0.00 0.00 0.00 64 1011.7
20260504204959 70 0.0 0.0 0.00 0.00 0.00 65 1011.9
20260504203000 68 0.0 0.0 0.00 0.00 0.00 68 1012.1
20260504201958 67 0.0 0.0 0.00 0.00 0.00 68 1012.2
20260504200959 67 0.0 0.0 0.00 0.00 0.00 69 1012.3
20260504200000 66 0.0 0.0 0.00 0.00 0.00 68 1012.4
20260504194957 66 0.0 0.0 0.00 0.00 0.00 69 1012.5
20260504193958 66 0.0 0.0 0.00 0.00 0.00 70 1012.5
20260504192959 65 0.0 0.0 0.00 0.00 0.00 73 1012.6
20260504191958 64 0.0 0.0 0.00 0.00 0.00 73 1012.7
20260504190957 64 0.0 0.0 0.00 0.00 0.00 75 1012.7
20260504190001 63 0.0 0.0 0.00 0.00 0.00 75 1012.8
20260504184958 62 0.0 0.0 0.00 0.00 0.00 76 1012.9
20260504183957 62 0.0 0.0 0.00 0.00 0.00 77 1013.0
20260504181959 61 0.0 0.0 0.00 0.00 0.00 78 1012.8
20260504180957 60 0.0 0.0 0.00 0.00 0.00 80 1012.9
20260504174958 60 0.0 0.0 0.00 0.00 0.00 79 1012.9
20260504172959 59 0.0 0.0 0.00 0.00 0.00 81 1012.9
20260504170958 59 0.0 0.0 0.00 0.00 0.00 80 1012.8
20260504150958 57 0.0 0.0 0.00 0.00 0.00 83 1012.3
20260504140957 56 0.0 0.0 0.00 0.00 0.00 84 1011.5
20260504081958 68 0.0 0.0 0.00 0.00 0.00 59 1007.5
20260504080957 69 0.0 0.0 0.00 0.00 0.00 59 1007.4
20260504050004 75 0.0 0.0 0.00 0.00 0.00 47 1006.4
20260504044000 76 0.0 0.0 0.00 0.00 0.00 47 1006.5
20260504043002 76 0.0 0.0 0.00 0.00 0.00 47 1006.3
20260504042000 77 0.0 0.0 0.00 0.00 0.00 47 1006.3
20260504040004 78 0.0 0.0 0.00 0.00 0.00 45 1006.0
20260504034959 79 0.0 0.0 0.00 0.00 0.00 44 1006.0
20260504033959 79 0.0 0.0 0.00 0.00 0.00 43 1005.9
20260504033000 80 0.0 0.0 0.00 0.00 0.00 43 1005.8
20260504030001 82 0.0 0.0 0.00 0.00 0.00 41 1005.6
20260504024958 83 0.0 0.0 0.00 0.00 0.00 40 1005.4
20260504023959 83 0.0 0.0 0.00 0.00 0.00 39 1005.4
20260504023001 84 0.0 0.0 0.00 0.00 0.00 38 1005.4
20260504021959 84 0.0 0.0 0.00 0.00 0.00 38 1005.5
20260504020959 85 0.0 0.0 0.00 0.00 0.00 37 1005.4
20260504020001 85 0.0 0.0 0.00 0.00 0.00 36 1005.5
20260504014959 86 0.0 0.0 0.00 0.00 0.00 36 1005.5
20260504013959 86 0.0 0.0 0.00 0.00 0.00 36 1005.6
20260504013001 86 0.0 0.0 0.00 0.00 0.00 35 1005.6
20260504011959 87 0.0 0.0 0.00 0.00 0.00 36 1005.7